Tracking 28333 objects as of 10-Dec-2023
HD Live streaming from Space Station
objects crossing your sky now

SL-12 R/B(2)

Track SL-12 R/B(2) now!


NORAD ID: 26397
Int'l Code: 2000-036D
Perigee: 35,747.1 km
Apogee: 35,902.6 km
Inclination: 13.5 °
Period: 1,437.7 minutes
Semi major axis: 42195 km
RCS: 2.5119 m2 (large)
Launch date: July 4, 2000
Source: Commonwealth of Independent States (former USSR) (CIS)
Launch site: TYURATAM MISSILE AND SPACE COMPLEX (TTMTR)

Note: This is a ROCKET BODY
Your satellite tracking list
Your tracking list is empty




NASA's NSSDC Master Catalog

Two Line Element Set (TLE):
1 26397U 00036D   23343.52535757 -.00000265  00000-0  00000+0 0  9993
2 26397  13.4597  13.9971 0018428  61.5332 124.3438  1.00161005 85722
Source of the keplerian elements: AFSPC